Regional Weather Roundup
Issued by NWS Upton, NY

Current Version | Previous Version | Text Only | Print | Product List | Glossary Off
Versions: 1 2 3 4 5 6 7 8 9 10 11 12 13 14 15 16 17 18 19 20 21 22 23 24 25 26 27 28 29 30 31 32 33 34 35 36 37 38 39 40 41 42 43 44 45 46 47 48 49 50

000
ASUS41 KOKX 270904
RWROKX

REGIONAL WEATHER ROUNDUP
NATIONAL WEATHER SERVICE NEW YORK NY
500 AM EDT FRI MAY 27 2016

NOTE: "FAIR" INDICATES FEW OR NO CLOUDS BELOW 12,000 FEET WITH NO
SIGNIFICANT WEATHER AND/OR OBSTRUCTIONS TO VISIBILITY.

NYZ071-072-176-178-NJZ106-104-271000-
NEW YORK CITY METRO AREA


CITY           SKY/WX    TMP DP  RH WIND       PRES   REMARKS
CENTRAL PARK   CLOUDY    74  57  55 VRB3      30.09S
LAGUARDIA APRT MOCLDY    69  64  84 CALM      30.05S
KENNEDY INTL   MOCLDY    64  61  90 SE6       30.07S
NEWARK/LIBERTY CLOUDY    71  59  65 S6        30.06R
BRNX BOT. GARD   N/A     64  57  77 E1        30.08S
TETERBORO      CLOUDY    71  55  56 CALM      30.05S
$$

NYZ177-179-078>081-271000-
LONG ISLAND NEW YORK

CITY           SKY/WX    TMP DP  RH WIND       PRES   REMARKS
FARMINGDALE    CLEAR     64  60  87 CALM      30.08R
ISLIP          CLEAR     61  58  90 E3        30.08R
SHIRLEY        CLEAR     59  57  93 CALM      30.09S
RIVERHEAD        N/A     59  57  94 CALM      30.08S
WESTHAMPTON    CLEAR     56  54  93 CALM      30.10S FOG
EAST HAMPTON   FAIR      57  56  97 S5        30.09S
MONTAUK POINT    N/A     58  57  97 VRB5      30.11S
$$

NYZ052-065-067-271000-
HUDSON VALLEY

CITY           SKY/WX    TMP DP  RH WIND       PRES   REMARKS
WHITE PLAINS   CLEAR     63  56  78 CALM      30.06F
NEWBURGH       NOT AVBL
MONTGOMERY     CLOUDY    66  59  78 CALM      30.05S
POUGHKEEPSIE   CLOUDY    66  58  75 CALM      30.04R
ALBANY         CLOUDY    72  51  47 S7        30.02F
$$

NJZ001-105-106-008-010-013-015-019>022-104-271000-
NEW JERSEY

CITY           SKY/WX    TMP DP  RH WIND       PRES   REMARKS
NEWARK/LIBERTY CLOUDY    71  59  65 S6        30.06R
TETERBORO      CLOUDY    71  55  56 CALM      30.05S
CALDWELL       CLOUDY    67  58  72 CALM      30.06S
MORRISTOWN     CLOUDY    63  59  88 CALM      30.06S
SOMERVILLE     CLOUDY    64  60  87 CALM      30.05S
SUSSEX         CLOUDY    65  59  81 CALM      30.06F
ANDOVER          N/A     67  64  90 CALM      30.07F
TRENTON        CLEAR     68  59  73 CALM      30.07R
MILLVILLE      CLEAR     69  64  84 VRB5      30.07S
ATLANTIC CITY  PTCLDY    67  63  87 S5        30.08R
WRIGHTSTOWN    LGT RAIN  66  62  86 S5        30.05S
TOMS RIVER     CLEAR     66  59  77 W5        30.07S
BELMAR         CLEAR     68  61  78 S5        30.08R
$$

PAZ047>061-062-071-271000-
EASTERN PENNSYLVANIA

CITY           SKY/WX    TMP DP  RH WIND       PRES   REMARKS
PHILADELPHIA   PTCLDY    70  62  76 S3        30.07R
ALLENTOWN      CLOUDY    69  66  90 CALM      30.05F
SCRANTON       CLOUDY    71  61  70 E6        30.05S
$$

CTZ002-004>006-009-010-012-RIZ004-006-007-MAZ004-011-015-271000-
SOUTHERN NEW ENGLAND
 IN CT

CITY           SKY/WX    TMP DP  RH WIND       PRES   REMARKS
BRADLEY INTL   CLOUDY    65  53  65 CALM      30.05S
HARTFORD       CLOUDY    66  55  67 S5        30.06S
DANBURY        CLOUDY    63  55  75 CALM      30.08S
WTRBRY/OXFORD    N/A     61  54  77 S5        30.09S
BRIDGEPORT     CLEAR     63  58  83 E3        30.08R
MERIDEN        CLEAR     59  55  87 CALM      30.07S
NEW HAVEN      CLEAR     60  56  86 CALM      30.08R
CHESTER        FAIR      59  57  94 CALM      30.09S
GROTON         PTCLDY    56  56 100 CALM      30.08S
WILLIMANTIC    CLOUDY    62  56  80 CALM      30.09S

 IN RI

CITY           SKY/WX    TMP DP  RH WIND       PRES   REMARKS
PROVIDENCE     CLOUDY    60  57  89 S5        30.10S
BLOCK ISLAND   CLEAR     58  57  97 S13       30.10S
WESTERLY       PTCLDY    54  50  86 CALM      30.10S

 IN MA

CITY           SKY/WX    TMP DP  RH WIND       PRES   REMARKS
BOSTON         CLOUDY    59  55  87 NE5       30.11R
WORCESTER      CLOUDY    60  57  89 NE3       30.11S
WESTFIELD      CLOUDY    62  56  80 CALM      30.06S
PROVINCETOWN   CLOUDY    59  56  89 S8        30.12S
NANTUCKET      LGT RAIN  56  55  97 S6        30.14S VSB 1/4
$$

ANZ330-335-338-340-345-350-353-355-271000-
COASTAL MARINE OBSERVATIONS


STATION/POSITION TIME  SKY/WX   TEMP    WIND        PRES    VSBY  WAVE
                                AIR SEA DIR/SP/G                  HT/PER
                 (UTC)          (F)     (DEG/KT/KT) (MB)    (MI)  (FT/S)
NY HARB ENTRANCE 0750            62 60  200/  8/ 10 1017.7          2/ 4
20S FIRE ISLAND  0750            61 59  210/ 12/ 14 1018.0          2/ 6
GREAT SOUTH BAY  0800            64 67  220/  6/  8   N/A
23 SSW MONTAUK P 0850            59 56  210/ 10/ 10 1018.7          2/ 8
15 E BARNEGAT LI 0822               59                N/A           3/ 4
HUDSON CANYON    0750            60 56              1019.5          3/ 9
KINGS POINT      0800            67 58              1017.6
EXECUTION ROCKS  NOT AVBL
CENTRAL LI SOUND 0800            61     130/  4/  6   N/A           0
EASTERN LI SOUND 0800            56 53  170/  6/  8   N/A
ROBBINS REEF     0800            71     170/  5/  6 1017.2
$$


>>>>>>>>>>>>>>>>>>>>>>>>>>>> KEY <<<<<<<<<<<<<<<<<<<<<<<<<<<
>                                                          <
>     SKY/WX - SKY CONDITION/PRESENT WEATHER               <
>     TMP    - TEMPERATURE IN FAHRENHEIT                   <
>     DP     - DEWPOINT IN FAHRENHEIT                      <
>     RH     - RELATIVE HUMIDITY IN PERCENT                <
>     WIND   - DIRECTION AND SPEED IN MPH                  <
>     PRES   - MEAN SEA LEVEL PRESSURE IN INCHES OF HG     <
>     WCI    - WIND CHILL INDEX                            <
>     VSB    - VISIBILITY IN MILES                         <
>     HX     - HEAT INDEX                                  <
>     TC     - TEMPERATURE IN CELSIUS                      <
>     VRB    - VARIABLE WIND DIRECTION                     <
>                                                          <
>>>>>>>>>>>>>>>>>>>>>>>>>>>> KEY <<<<<<<<<<<<<<<<<<<<<<<<<<<





USA.gov is the U.S. government's official web portal to all federal, state and local government web resources and services.